Regional Weather Roundup
Issued by NWS Raleigh/Durham, NC

Home | Current Version | Previous Version | Text Only | Print | Product List | Glossary On
Versions: 1 2 3 4 5 6 7 8 9 10 11 12 13 14 15 16 17 18 19 20 21 22 23 24 25 26 27 28 29 30 31 32 33 34 35 36 37 38 39 40 41 42 43 44 45 46 47 48 49 50
000
ASUS42 KRAH 150410
RWRRAH
NORTH CAROLINA WEATHER ROUNDUP
NATIONAL WEATHER SERVICE RALEIGH NC
1200 AM EDT MON SEP 15 2014

NOTE: "FAIR" INDICATES FEW OR NO CLOUDS BELOW 12,000 FEET WITH NO
SIGNIFICANT WEATHER AND/OR OBSTRUCTIONS TO VISIBILITY.

NCZ001-053-055-056-065-067-150500-
WESTERN NORTH CAROLINA

CITY           SKY/WX    TMP DP  RH WIND       PRES   REMARKS
ASHEVILLE      CLOUDY    61  59  93 S7        30.28F
JEFFERSON      FOG       56  56  97 CALM      30.29S VSB 1/2
HICKORY        CLOUDY    65  61  87 CALM      30.25S
RUTHERFORDTON  CLOUDY    64  62  93 CALM      30.26S
MOUNT AIRY     CLOUDY    63  60  87 CALM      30.27S
BOONE          CLOUDY    56  56 100 CALM      30.30F FOG
$$

NCZ021-022-025-041-071-084-088-150500-
CENTRAL NORTH CAROLINA

CITY           SKY/WX    TMP DP  RH WIND       PRES   REMARKS
CHARLOTTE      CLOUDY    66  61  84 CALM      30.25R
GREENSBORO     CLOUDY    64  57  78 E3        30.24S
WINSTON-SALEM  CLOUDY    64  56  75 CALM      30.25F
RALEIGH-DURHAM LGT RAIN  64  58  80 NE3       30.24F
FORT BRAGG     CLOUDY    68  63  83 N5        30.22S
FAYETTEVILLE   CLOUDY    69  65  86 N6        30.22R
BURLINGTON     CLOUDY    63  57  81 E5        30.24S
LAURINBURG     CLOUDY    69  64  84 CALM      30.23R
$$

NCZ011-015-027-028-043-044-047-080-103-150500-
NORTHEASTERN NORTH CAROLINA

CITY           SKY/WX    TMP DP  RH WIND       PRES   REMARKS
ROCKY MT-WILSO CLOUDY    64  59  83 N6        30.22F
GREENVILLE     CLEAR     63  63 100 N3        30.22F
WASHINGTON     CLOUDY    66  60  82 CALM      30.21S
ELIZABETH CITY MOCLDY    67  57  70 N9        30.21S
MANTEO         CLOUDY    68  57  68 N9        30.19F
CAPE HATTERAS  CLOUDY    68  63  84 NE7       30.17F
$$

NCZ078-087-090-091-093-098-101-150500-
SOUTHEASTERN NORTH CAROLINA

CITY           SKY/WX    TMP DP  RH WIND       PRES   REMARKS
LUMBERTON      CLOUDY    67  65  93 CALM      30.21S
GOLDSBORO      MOCLDY    66  65  98 CALM      30.20S
KINSTON        CLEAR     67  65  93 N5        30.21F
KENANSVILLE    NOT AVBL
NEW BERN       CLOUDY    69  61  75 NE5       30.21R
CHERRY POINT   CLEAR     69  63  81 NE5       30.20S
BEAUFORT       CLEAR     69  63  81 NE3       30.18F
JACKSONVILLE   CLOUDY    70  67  90 MISG      30.19S
WILMINGTON     CLOUDY    70  67  90 N5        30.19S
$$




USA.gov is the U.S. government's official web portal to all federal, state and local government web resources and services.